| time (UTC) | temp F | wind direction | speed MPH | gust MPH | rain 1hr in | rain 24hr in | rain mn in | humidity % | barometer mb |
| 20260901204540 | 88 | 94 | 1.0 | 3.0 | 0.00 | 0.00 | 0.00 | 67 | 1013.6 |
| 20260901203034 | 88 | 98 | 1.0 | 8.0 | 0.00 | 0.00 | 0.00 | 68 | 1013.5 |
| 20260901201531 | 88 | 112 | 3.0 | 8.0 | 0.00 | 0.00 | 0.00 | 66 | 1013.9 |
| 20260901200038 | 87 | 122 | 2.0 | 7.0 | 0.00 | 0.00 | 0.00 | 72 | 1014.0 |
| 20260901194533 | 86 | 128 | 2.0 | 10.0 | 0.00 | 0.00 | 0.00 | 69 | 1014.3 |
| 20260901193032 | 85 | 129 | 3.0 | 8.0 | 0.00 | 0.00 | 0.00 | 72 | 1014.7 |
| 20260901191524 | 85 | 113 | 3.0 | 12.0 | 0.00 | 0.00 | 0.00 | 72 | 1014.7 |
| 20260901190028 | 86 | 76 | 3.0 | 12.0 | 0.00 | 0.00 | 0.00 | 67 | 1015.0 |
| 20260901184526 | 89 | 101 | 4.0 | 9.0 | 0.00 | 0.00 | 0.00 | 66 | 1015.1 |
| 20260901183040 | 89 | 84 | 0.0 | 3.0 | 0.00 | 0.00 | 0.00 | 66 | 1015.3 |
| 20260901181514 | 89 | 110 | 0.0 | 4.0 | 0.00 | 0.00 | 0.00 | 67 | 1015.5 |
| 20260901180019 | 89 | 57 | 1.0 | 4.0 | 0.00 | 0.00 | 0.00 | 67 | 1015.6 |
| 20260901174524 | 89 | 135 | 0.0 | 2.0 | 0.00 | 0.00 | 0.00 | 69 | 1015.4 |
| 20260901173030 | 89 | 26 | 0.0 | 3.0 | 0.00 | 0.00 | 0.00 | 69 | 1015.9 |
| 20260901171532 | 89 | 75 | 1.0 | 3.0 | 0.00 | 0.00 | 0.00 | 70 | 1016.1 |
| 20260901170017 | 89 | 69 | 1.0 | 2.0 | 0.00 | 0.00 | 0.00 | 71 | 1016.2 |
| 20260901164524 | 88 | 34 | 0.0 | 3.0 | 0.00 | 0.00 | 0.00 | 72 | 1016.3 |
| 20260901163029 | 88 | 352 | 0.0 | 3.0 | 0.00 | 0.00 | 0.00 | 73 | 1016.6 |
| 20260901161533 | 88 | 86 | 1.0 | 4.0 | 0.00 | 0.00 | 0.00 | 73 | 1016.5 |
| 20260901160033 | 88 | 39 | 1.0 | 5.0 | 0.00 | 0.00 | 0.00 | 73 | 1016.6 |
| 20260901154518 | 87 | 51 | 0.0 | 4.0 | 0.00 | 0.00 | 0.00 | 74 | 1016.5 |
| 20260901153036 | 87 | 61 | 0.0 | 4.0 | 0.00 | 0.00 | 0.00 | 75 | 1016.5 |
| 20260901151531 | 86 | 117 | 1.0 | 3.0 | 0.00 | 0.00 | 0.00 | 75 | 1016.6 |
| 20260901150033 | 87 | 56 | 2.0 | 4.0 | 0.00 | 0.00 | 0.00 | 76 | 1016.4 |
| 20260901144527 | 86 | 129 | 2.0 | 4.0 | 0.00 | 0.00 | 0.00 | 78 | 1016.3 |
| 20260901143026 | 85 | 43 | 0.0 | 2.0 | 0.00 | 0.00 | 0.00 | 80 | 1016.4 |
| 20260901141531 | 85 | 91 | 0.0 | 4.0 | 0.00 | 0.00 | 0.00 | 80 | 1016.3 |
| 20260901140009 | 85 | 81 | 1.0 | 4.0 | 0.00 | 0.00 | 0.00 | 80 | 1016.1 |
| 20260901134514 | 85 | 117 | 0.0 | 3.0 | 0.00 | 0.00 | 0.00 | 80 | 1016.0 |
| 20260901133039 | 84 | 5 | 0.0 | 3.0 | 0.00 | 0.00 | 0.00 | 81 | 1016.0 |
| 20260901131507 | 84 | 72 | 1.0 | 2.0 | 0.00 | 0.00 | 0.00 | 82 | 1016.0 |
| 20260901130007 | 83 | 46 | 1.0 | 3.0 | 0.00 | 0.00 | 0.00 | 84 | 1015.7 |
| 20260901124512 | 82 | 82 | 1.0 | 3.0 | 0.00 | 0.00 | 0.00 | 86 | 1015.8 |
| 20260901123018 | 81 | 41 | 1.0 | 3.0 | 0.00 | 0.00 | 0.00 | 88 | 1015.9 |
| 20260901121525 | 79 | 55 | 0.0 | 2.0 | 0.00 | 0.00 | 0.00 | 89 | 1015.9 |
| 20260901120008 | 78 | 9 | 0.0 | 0.0 | 0.00 | 0.00 | 0.00 | 89 | 1015.5 |
| 20260901114509 | 78 | 34 | 0.0 | 1.0 | 0.00 | 0.00 | 0.00 | 89 | 1015.3 |
| 20260901113021 | 78 | 24 | 0.0 | 2.0 | 0.00 | 0.00 | 0.00 | 89 | 1015.2 |
| 20260901111526 | 78 | 15 | 0.0 | 0.0 | 0.00 | 0.00 | 0.00 | 89 | 1015.1 |
| 20260901110010 | 78 | 42 | 0.0 | 0.0 | 0.00 | 0.00 | 0.00 | 89 | 1015.1 |
| 20260901104513 | 78 | 15 | 0.0 | 0.0 | 0.00 | 0.00 | 0.00 | 89 | 1014.8 |
| 20260901103017 | 78 | 15 | 0.0 | 0.0 | 0.00 | 0.00 | 0.00 | 89 | 1014.6 |
| 20260901101525 | 78 | 15 | 0.0 | 0.0 | 0.00 | 0.00 | 0.00 | 89 | 1014.6 |
| 20260901100031 | 78 | 11 | 0.0 | 0.0 | 0.00 | 0.00 | 0.00 | 89 | 1014.8 |
| 20260901094511 | 78 | 20 | 0.0 | 2.0 | 0.00 | 0.00 | 0.00 | 89 | 1014.7 |
| 20260901093016 | 78 | 19 | 0.0 | 0.0 | 0.00 | 0.00 | 0.00 | 88 | 1014.6 |
| 20260901091530 | 78 | 11 | 0.0 | 0.0 | 0.00 | 0.00 | 0.00 | 88 | 1014.7 |
| 20260901090031 | 78 | 78 | 0.0 | 0.0 | 0.00 | 0.00 | 0.00 | 88 | 1014.6 |
| 20260901084533 | 78 | 78 | 0.0 | 0.0 | 0.00 | 0.00 | 0.00 | 88 | 1014.4 |
| 20260901083013 | 78 | 78 | 0.0 | 0.0 | 0.00 | 0.00 | 0.00 | 88 | 1014.4 |
| 20260901081519 | 78 | 78 | 0.0 | 0.0 | 0.00 | 0.00 | 0.00 | 87 | 1014.5 |
| 20260901080027 | 78 | 78 | 0.0 | 0.0 | 0.00 | 0.00 | 0.00 | 87 | 1014.7 |
| 20260901074530 | 78 | 78 | 0.0 | 0.0 | 0.00 | 0.00 | 0.00 | 87 | 1014.9 |
| 20260901073019 | 79 | 78 | 0.0 | 0.0 | 0.00 | 0.00 | 0.00 | 86 | 1015.1 |
| 20260901071518 | 79 | 78 | 0.0 | 0.0 | 0.00 | 0.00 | 0.00 | 86 | 1015.1 |
| 20260901070030 | 79 | 78 | 0.0 | 0.0 | 0.00 | 0.00 | 0.00 | 86 | 1015.2 |
| 20260901064535 | 79 | 94 | 0.0 | 0.0 | 0.00 | 0.00 | 0.00 | 85 | 1015.2 |
| 20260901063035 | 79 | 94 | 0.0 | 0.0 | 0.00 | 0.00 | 0.00 | 85 | 1015.3 |
| 20260901061514 | 79 | 96 | 0.0 | 0.0 | 0.00 | 0.00 | 0.00 | 84 | 1015.4 |
| 20260901060025 | 79 | 96 | 0.0 | 0.0 | 0.00 | 0.00 | 0.00 | 84 | 1015.3 |
| 20260901054526 | 79 | 96 | 0.0 | 0.0 | 0.00 | 0.00 | 0.00 | 84 | 1015.5 |
| 20260901053031 | 79 | 96 | 0.0 | 0.0 | 0.00 | 0.00 | 0.00 | 84 | 1015.6 |
| 20260901051535 | 79 | 96 | 0.0 | 0.0 | 0.00 | 0.00 | 0.00 | 85 | 1015.8 |
| 20260901050019 | 79 | 96 | 0.0 | 0.0 | 0.00 | 0.00 | 0.00 | 85 | 1015.7 |
| 20260901044526 | 79 | 96 | 0.0 | 2.0 | 0.00 | 0.00 | 0.00 | 85 | 1015.8 |
| 20260901043030 | 79 | 96 | 0.0 | 2.0 | 0.00 | 0.00 | 0.00 | 85 | 1016.3 |
| 20260901041534 | 79 | 96 | 0.0 | 2.0 | 0.00 | 0.00 | 0.00 | 85 | 1016.6 |
| 20260901040020 | 79 | 128 | 0.0 | 2.0 | 0.00 | 0.00 | 0.00 | 85 | 1016.6 |
| 20260901034525 | 79 | 96 | 0.0 | 2.0 | 0.00 | 0.00 | 0.00 | 84 | 1016.8 |
| 20260901033048 | 79 | 55 | 1.0 | 3.0 | 0.00 | 0.00 | 0.00 | 83 | 1017.3 |
| 20260901031534 | 80 | 107 | 0.0 | 2.0 | 0.00 | 0.00 | 0.00 | 82 | 1017.2 |
| 20260901030036 | 80 | 125 | 0.0 | 2.0 | 0.00 | 0.00 | 0.00 | 80 | 1017.2 |
| 20260901024520 | 80 | 147 | 0.0 | 2.0 | 0.00 | 0.00 | 0.00 | 79 | 1017.2 |
| 20260901023033 | 81 | 213 | 0.0 | 2.0 | 0.00 | 0.00 | 0.00 | 78 | 1016.9 |
| 20260901021532 | 81 | 181 | 0.0 | 3.0 | 0.00 | 0.00 | 0.00 | 80 | 1017.0 |
| 20260901020036 | 82 | 240 | 0.0 | 2.0 | 0.00 | 0.00 | 0.00 | 83 | 1016.8 |
| 20260901014534 | 82 | 320 | 0.0 | 2.0 | 0.00 | 0.00 | 0.00 | 82 | 1016.4 |
| 20260901013029 | 82 | 9 | 0.0 | 2.0 | 0.00 | 0.00 | 0.00 | 81 | 1016.2 |
| 20260901011506 | 83 | 293 | 0.0 | 2.0 | 0.00 | 0.00 | 0.00 | 80 | 1016.1 |
| 20260901010010 | 83 | 294 | 0.0 | 2.0 | 0.00 | 0.00 | 0.00 | 80 | 1016.1 |
| 20260901004519 | 83 | 279 | 0.0 | 2.0 | 0.00 | 0.00 | 0.00 | 79 | 1015.8 |
| 20260901003021 | 84 | 285 | 0.0 | 2.0 | 0.00 | 0.00 | 0.00 | 78 | 1015.7 |
| 20260901001510 | 84 | 13 | 0.0 | 0.0 | 0.00 | 0.00 | 0.00 | 76 | 1015.6 |
| 20260901000008 | 84 | 332 | 0.0 | 0.0 | 0.00 | 0.00 | 0.00 | 77 | 1015.3 |
| 20260831234526 | 84 | 347 | 0.0 | 2.0 | 0.00 | 0.00 | 0.00 | 76 | 1015.2 |
| 20260831233017 | 85 | 154 | 0.0 | 2.0 | 0.00 | 0.00 | 0.00 | 77 | 1015.2 |
| 20260831231528 | 85 | 147 | 0.0 | 2.0 | 0.00 | 0.00 | 0.00 | 77 | 1015.1 |
| 20260831230007 | 86 | 140 | 0.0 | 2.0 | 0.00 | 0.00 | 0.00 | 76 | 1015.2 |
| 20260831224511 | 86 | 63 | 1.0 | 3.0 | 0.00 | 0.00 | 0.00 | 74 | 1015.1 |
| 20260831223019 | 86 | 106 | 0.0 | 3.0 | 0.00 | 0.00 | 0.00 | 69 | 1015.4 |
| 20260831221526 | 86 | 44 | 1.0 | 4.0 | 0.00 | 0.00 | 0.00 | 66 | 1015.2 |
| 20260831220031 | 87 | 61 | 1.0 | 9.0 | 0.00 | 0.00 | 0.00 | 64 | 1015.2 |
| 20260831214508 | 88 | 106 | 2.0 | 7.0 | 0.00 | 0.00 | 0.00 | 65 | 1014.7 |
| 20260831213030 | 88 | 108 | 3.0 | 9.0 | 0.00 | 0.00 | 0.00 | 72 | 1014.8 |
| 20260831211520 | 89 | 24 | 5.0 | 11.0 | 0.00 | 0.00 | 0.00 | 68 | 1014.8 |
| 20260831210025 | 88 | 115 | 1.0 | 4.0 | 0.00 | 0.00 | 0.00 | 71 | 1015.0 |